Location: *
(12.5665°N, 8.3471°E)
Time: 10:59:15
(UTC+00:00)

GPS 2-04 Rocket1 - Pass Details

Date: 23 September 2019
Orbit: 419 x 552 km, 35.6° (Epoch: 19 October)

Event Time Altitude Azimuth Distance (km) Brightness Sun altitude
Exits shadow 03:41:47 30° 168° (SSE) 964 4.0 -23.7°
Drops below altitude 10° 03:44:12 10° 145° (SE) 1,764 5.7 -23.1°
Sets 03:46:28 0° 138° (SE) 2,632 6.8 -22.6°
